Year,Month,Day,Hour,Minute,Value (Times are PST for temperature in C)
2012,08,17,00,00,20.80
2012,08,17,00,01,20.80
2012,08,17,00,02,20.80
2012,08,17,00,03,20.80
2012,08,17,00,04,20.80
2012,08,17,00,05,20.80
2012,08,17,00,06,20.80
2012,08,17,00,07,20.90
2012,08,17,00,08,21.00
2012,08,17,00,09,21.00
2012,08,17,00,10,21.10
2012,08,17,00,11,21.20
2012,08,17,00,12,21.20
2012,08,17,00,13,21.20
2012,08,17,00,14,21.20
2012,08,17,00,15,21.20
2012,08,17,00,16,21.20
2012,08,17,00,17,21.20
2012,08,17,00,18,21.20
2012,08,17,00,19,21.10
2012,08,17,00,20,21.10
2012,08,17,00,21,21.00
2012,08,17,00,22,20.90
2012,08,17,00,23,20.80
2012,08,17,00,24,20.80
2012,08,17,00,25,20.80
2012,08,17,00,26,20.80
2012,08,17,00,27,20.90
2012,08,17,00,28,20.90
2012,08,17,00,29,20.90
2012,08,17,00,30,21.00
2012,08,17,00,31,21.00
2012,08,17,00,32,21.00
2012,08,17,00,33,21.10
2012,08,17,00,34,21.10
2012,08,17,00,35,21.10
2012,08,17,00,36,21.10
2012,08,17,00,37,21.10
2012,08,17,00,38,21.10
2012,08,17,00,39,21.10
2012,08,17,00,40,21.00
2012,08,17,00,41,21.00
2012,08,17,00,42,21.00
2012,08,17,00,43,21.00
2012,08,17,00,44,20.90
2012,08,17,00,45,20.90
2012,08,17,00,46,20.90
2012,08,17,00,47,20.90
2012,08,17,00,48,20.90
2012,08,17,00,49,20.80
2012,08,17,00,50,20.80
2012,08,17,00,51,20.70
2012,08,17,00,52,20.60
2012,08,17,00,53,20.60
2012,08,17,00,54,20.50
2012,08,17,00,55,20.40
2012,08,17,00,56,20.40
2012,08,17,00,57,20.40
2012,08,17,00,58,20.40
2012,08,17,00,59,20.30
2012,08,17,01,00,20.30
2012,08,17,01,01,20.40
2012,08,17,01,02,20.40
2012,08,17,01,03,20.40
2012,08,17,01,04,20.40
2012,08,17,01,05,20.40
2012,08,17,01,06,20.50
2012,08,17,01,07,20.50
2012,08,17,01,08,20.50
2012,08,17,01,09,20.50
2012,08,17,01,10,20.50
2012,08,17,01,11,20.50
2012,08,17,01,12,20.50
2012,08,17,01,13,20.50
2012,08,17,01,14,20.50
2012,08,17,01,15,20.60
2012,08,17,01,16,20.60
2012,08,17,01,17,20.60
2012,08,17,01,18,20.60
2012,08,17,01,19,20.60
2012,08,17,01,20,20.60
2012,08,17,01,21,20.60
2012,08,17,01,22,20.50
2012,08,17,01,23,20.50
2012,08,17,01,24,20.50
2012,08,17,01,25,20.40
2012,08,17,01,26,20.40
2012,08,17,01,27,20.30
2012,08,17,01,28,20.30
2012,08,17,01,29,20.30
2012,08,17,01,30,20.30
2012,08,17,01,31,20.30
2012,08,17,01,32,20.30
2012,08,17,01,33,20.30
2012,08,17,01,34,20.30
2012,08,17,01,35,20.20
2012,08,17,01,36,20.20
2012,08,17,01,37,20.20
2012,08,17,01,38,20.20
2012,08,17,01,39,20.20
2012,08,17,01,40,20.10
2012,08,17,01,41,20.10
2012,08,17,01,42,20.00
2012,08,17,01,43,19.90
2012,08,17,01,44,19.90
2012,08,17,01,45,19.80
2012,08,17,01,46,19.80
2012,08,17,01,47,19.70
2012,08,17,01,48,19.70
2012,08,17,01,49,19.60
2012,08,17,01,50,19.60
2012,08,17,01,51,19.60
2012,08,17,01,52,19.60
2012,08,17,01,53,19.60
2012,08,17,01,54,19.60
2012,08,17,01,55,19.60
2012,08,17,01,56,19.60
2012,08,17,01,57,19.60
2012,08,17,01,58,19.60
2012,08,17,01,59,19.60
2012,08,17,02,00,19.60
2012,08,17,02,01,19.60
2012,08,17,02,02,19.60
2012,08,17,02,03,19.70
2012,08,17,02,04,19.70
2012,08,17,02,05,19.70
2012,08,17,02,06,19.80
2012,08,17,02,07,19.80
2012,08,17,02,08,19.80
2012,08,17,02,09,19.80
2012,08,17,02,10,19.80
2012,08,17,02,11,19.80
2012,08,17,02,12,19.80
2012,08,17,02,13,19.80
2012,08,17,02,14,19.80
2012,08,17,02,15,19.90
2012,08,17,02,16,19.80
2012,08,17,02,17,19.90
2012,08,17,02,18,19.90
2012,08,17,02,19,20.00
2012,08,17,02,20,20.10
2012,08,17,02,21,20.20
2012,08,17,02,22,20.20
2012,08,17,02,23,20.30
2012,08,17,02,24,20.30
2012,08,17,02,25,20.20
2012,08,17,02,26,20.20
2012,08,17,02,27,20.10
2012,08,17,02,28,20.10
2012,08,17,02,29,20.00
2012,08,17,02,30,19.90
2012,08,17,02,31,19.90
2012,08,17,02,32,19.90
2012,08,17,02,33,19.90
2012,08,17,02,34,19.90
2012,08,17,02,35,19.90
2012,08,17,02,36,19.80
2012,08,17,02,37,19.80
2012,08,17,02,38,19.80
2012,08,17,02,39,19.80
2012,08,17,02,40,19.80
2012,08,17,02,41,19.80
2012,08,17,02,42,19.80
2012,08,17,02,43,19.80
2012,08,17,02,44,19.80
2012,08,17,02,45,19.80
2012,08,17,02,46,19.80
2012,08,17,02,47,19.90
2012,08,17,02,48,19.90
2012,08,17,02,49,19.90
2012,08,17,02,50,19.90
2012,08,17,02,51,19.90
2012,08,17,02,52,19.90
2012,08,17,02,53,19.90
2012,08,17,02,54,19.90
2012,08,17,02,55,19.90
2012,08,17,02,56,19.80
2012,08,17,02,57,19.80
2012,08,17,02,58,19.70
2012,08,17,02,59,19.60
2012,08,17,03,00,19.50
2012,08,17,03,01,19.50
2012,08,17,03,02,19.40
2012,08,17,03,03,19.40
2012,08,17,03,04,19.30
2012,08,17,03,05,19.30
2012,08,17,03,06,19.30
2012,08,17,03,07,19.30
2012,08,17,03,08,19.30
2012,08,17,03,09,19.40
2012,08,17,03,10,19.40
2012,08,17,03,11,19.50
2012,08,17,03,12,19.50
2012,08,17,03,13,19.60
2012,08,17,03,14,19.60
2012,08,17,03,15,19.70
2012,08,17,03,16,19.70
2012,08,17,03,17,19.80
2012,08,17,03,18,19.80
2012,08,17,03,19,19.80
2012,08,17,03,20,19.80
2012,08,17,03,21,19.80
2012,08,17,03,22,19.70
2012,08,17,03,23,19.70
2012,08,17,03,24,19.60
2012,08,17,03,25,19.60
2012,08,17,03,26,19.60
2012,08,17,03,27,19.50
2012,08,17,03,28,19.60
2012,08,17,03,29,19.60
2012,08,17,03,30,19.60
2012,08,17,03,31,19.70
2012,08,17,03,32,19.70
2012,08,17,03,33,19.70
2012,08,17,03,34,19.70
2012,08,17,03,35,19.60
2012,08,17,03,36,19.40
2012,08,17,03,37,19.30
2012,08,17,03,38,19.10
2012,08,17,03,39,18.90
2012,08,17,03,40,18.80
2012,08,17,03,41,18.70
2012,08,17,03,42,18.60
2012,08,17,03,43,18.50
2012,08,17,03,44,18.40
2012,08,17,03,45,18.40
2012,08,17,03,46,18.50
2012,08,17,03,47,18.50
2012,08,17,03,48,18.60
2012,08,17,03,49,18.60
2012,08,17,03,50,18.60
2012,08,17,03,51,18.60
2012,08,17,03,52,18.70
2012,08,17,03,53,18.70
2012,08,17,03,54,18.70
2012,08,17,03,55,18.70
2012,08,17,03,56,18.70
2012,08,17,03,57,18.70
2012,08,17,03,58,18.70
2012,08,17,03,59,18.70
2012,08,17,04,00,18.70
2012,08,17,04,01,18.80
2012,08,17,04,02,18.80
2012,08,17,04,03,18.80
2012,08,17,04,04,18.70
2012,08,17,04,05,18.60
2012,08,17,04,06,18.50
2012,08,17,04,07,18.40
2012,08,17,04,08,18.30
2012,08,17,04,09,18.20
2012,08,17,04,10,18.10
2012,08,17,04,11,18.10
2012,08,17,04,12,18.00
2012,08,17,04,13,17.90
2012,08,17,04,14,17.90
2012,08,17,04,15,17.90
2012,08,17,04,16,17.80
2012,08,17,04,17,17.90
2012,08,17,04,18,17.90
2012,08,17,04,19,17.90
2012,08,17,04,20,17.90
2012,08,17,04,21,17.90
2012,08,17,04,22,17.90
2012,08,17,04,23,18.00
2012,08,17,04,24,18.10
2012,08,17,04,25,18.20
2012,08,17,04,26,18.30
2012,08,17,04,27,18.40
2012,08,17,04,28,18.40
2012,08,17,04,29,18.50
2012,08,17,04,30,18.50
2012,08,17,04,31,18.50
2012,08,17,04,32,18.60
2012,08,17,04,33,18.60
2012,08,17,04,34,18.70
2012,08,17,04,35,18.70
2012,08,17,04,36,18.70
2012,08,17,04,37,18.80
2012,08,17,04,38,18.80
2012,08,17,04,39,18.80
2012,08,17,04,40,18.80
2012,08,17,04,41,18.90
2012,08,17,04,42,18.90
2012,08,17,04,43,18.80
2012,08,17,04,44,18.80
2012,08,17,04,45,18.80
2012,08,17,04,46,18.80
2012,08,17,04,47,18.80
2012,08,17,04,48,18.80
2012,08,17,04,49,18.80
2012,08,17,04,50,18.80
2012,08,17,04,51,18.80
2012,08,17,04,52,18.70
2012,08,17,04,53,18.70
2012,08,17,04,54,18.70
2012,08,17,04,55,18.70
2012,08,17,04,56,18.60
2012,08,17,04,57,18.60
2012,08,17,04,58,18.60
2012,08,17,04,59,18.50
2012,08,17,05,00,18.50
2012,08,17,05,01,18.50
2012,08,17,05,02,18.50
2012,08,17,05,03,18.50
2012,08,17,05,04,18.40
2012,08,17,05,05,18.40
2012,08,17,05,06,18.40
2012,08,17,05,07,18.40
2012,08,17,05,08,18.40
2012,08,17,05,09,18.40
2012,08,17,05,10,18.50
2012,08,17,05,11,18.50
2012,08,17,05,12,18.50
2012,08,17,05,13,18.40
2012,08,17,05,14,18.40
2012,08,17,05,15,18.40
2012,08,17,05,16,18.40
2012,08,17,05,17,18.40
2012,08,17,05,18,18.40
2012,08,17,05,19,18.30
2012,08,17,05,20,18.30
2012,08,17,05,21,18.30
2012,08,17,05,22,18.30
2012,08,17,05,23,18.30
2012,08,17,05,24,18.30
2012,08,17,05,25,18.30
2012,08,17,05,26,18.30
2012,08,17,05,27,18.30
2012,08,17,05,28,18.30
2012,08,17,05,29,18.30
2012,08,17,05,30,18.30
2012,08,17,05,31,18.30
2012,08,17,05,32,18.20
2012,08,17,05,33,18.20
2012,08,17,05,34,18.10
2012,08,17,05,35,18.10
2012,08,17,05,36,18.10
2012,08,17,05,37,18.10
2012,08,17,05,38,18.10
2012,08,17,05,39,18.10
2012,08,17,05,40,18.10
2012,08,17,05,41,18.10
2012,08,17,05,42,18.20
2012,08,17,05,43,18.20
2012,08,17,05,44,18.20
2012,08,17,05,45,18.20
2012,08,17,05,46,18.20
2012,08,17,05,47,18.10
2012,08,17,05,48,18.10
2012,08,17,05,49,18.00
2012,08,17,05,50,18.00
2012,08,17,05,51,17.90
2012,08,17,05,52,17.80
2012,08,17,05,53,17.80
2012,08,17,05,54,17.80
2012,08,17,05,55,17.80
2012,08,17,05,56,17.80
2012,08,17,05,57,17.80
2012,08,17,05,58,17.80
2012,08,17,05,59,17.80
2012,08,17,06,00,17.80
2012,08,17,06,01,17.80
2012,08,17,06,02,17.70
2012,08,17,06,03,17.70
2012,08,17,06,04,17.70
2012,08,17,06,05,17.70
2012,08,17,06,06,17.70
2012,08,17,06,07,17.80
2012,08,17,06,08,17.90
2012,08,17,06,09,17.90
2012,08,17,06,10,17.90
2012,08,17,06,11,17.90
2012,08,17,06,12,17.80
2012,08,17,06,13,17.80
2012,08,17,06,14,17.80
2012,08,17,06,15,17.80
2012,08,17,06,16,17.80
2012,08,17,06,17,17.80
2012,08,17,06,18,17.80
2012,08,17,06,19,17.80
2012,08,17,06,20,17.80
2012,08,17,06,21,17.80
2012,08,17,06,22,17.90
2012,08,17,06,23,17.90
2012,08,17,06,24,18.00
2012,08,17,06,25,18.00
2012,08,17,06,26,18.00
2012,08,17,06,27,18.00
2012,08,17,06,28,18.00
2012,08,17,06,29,18.00
2012,08,17,06,30,18.00
2012,08,17,06,31,18.00
2012,08,17,06,32,18.00
2012,08,17,06,33,18.00
2012,08,17,06,34,17.90
2012,08,17,06,35,17.90
2012,08,17,06,36,17.80
2012,08,17,06,37,17.60
2012,08,17,06,38,17.50
2012,08,17,06,39,17.40
2012,08,17,06,40,17.30
2012,08,17,06,41,17.30
2012,08,17,06,42,17.20
2012,08,17,06,43,17.20
2012,08,17,06,44,17.20
2012,08,17,06,45,17.20
2012,08,17,06,46,17.20
2012,08,17,06,47,17.20
2012,08,17,06,48,17.20
2012,08,17,06,49,17.20
2012,08,17,06,50,17.30
2012,08,17,06,51,17.30
2012,08,17,06,52,17.30
2012,08,17,06,53,17.40
2012,08,17,06,54,17.50
2012,08,17,06,55,17.50
2012,08,17,06,56,17.60
2012,08,17,06,57,17.70
2012,08,17,06,58,17.70
2012,08,17,06,59,17.80
2012,08,17,07,00,17.80
2012,08,17,07,01,17.90
2012,08,17,07,02,18.00
2012,08,17,07,03,18.00
2012,08,17,07,04,18.10
2012,08,17,07,05,18.20
2012,08,17,07,06,18.20
2012,08,17,07,07,18.30
2012,08,17,07,08,18.40
2012,08,17,07,09,18.50
2012,08,17,07,10,18.50
2012,08,17,07,11,18.60
2012,08,17,07,12,18.70
2012,08,17,07,13,18.80
2012,08,17,07,14,18.80
2012,08,17,07,15,18.90
2012,08,17,07,16,18.90
2012,08,17,07,17,19.00
2012,08,17,07,18,19.10
2012,08,17,07,19,19.20
2012,08,17,07,20,19.30
2012,08,17,07,21,19.30
2012,08,17,07,22,19.40
2012,08,17,07,23,19.40
2012,08,17,07,24,19.40
2012,08,17,07,25,19.50
2012,08,17,07,26,19.60
2012,08,17,07,27,19.60
2012,08,17,07,28,19.70
2012,08,17,07,29,19.80
2012,08,17,07,30,19.80
2012,08,17,07,31,19.90
2012,08,17,07,32,19.90
2012,08,17,07,33,19.90
2012,08,17,07,34,20.00
2012,08,17,07,35,20.10
2012,08,17,07,36,20.20
2012,08,17,07,37,20.30
2012,08,17,07,38,20.30
2012,08,17,07,39,20.40
2012,08,17,07,40,20.60
2012,08,17,07,41,20.70
2012,08,17,07,42,20.80
2012,08,17,07,43,21.00
2012,08,17,07,44,21.10
2012,08,17,07,45,21.20
2012,08,17,07,46,21.20
2012,08,17,07,47,21.30
2012,08,17,07,48,21.30
2012,08,17,07,49,21.40
2012,08,17,07,50,21.40
2012,08,17,07,51,21.50
2012,08,17,07,52,21.50
2012,08,17,07,53,21.60
2012,08,17,07,54,21.60
2012,08,17,07,55,21.60
2012,08,17,07,56,21.70
2012,08,17,07,57,21.70
2012,08,17,07,58,21.80
2012,08,17,07,59,21.80
2012,08,17,08,00,21.90
2012,08,17,08,01,22.00
2012,08,17,08,02,22.10
2012,08,17,08,03,22.20
2012,08,17,08,04,22.30
2012,08,17,08,05,22.30
2012,08,17,08,06,22.40
2012,08,17,08,07,22.40
2012,08,17,08,08,22.40
2012,08,17,08,09,22.40
2012,08,17,08,10,22.40
2012,08,17,08,11,22.40
2012,08,17,08,12,22.40
2012,08,17,08,13,22.30
2012,08,17,08,14,22.30
2012,08,17,08,15,22.20
2012,08,17,08,16,22.20
2012,08,17,08,17,22.20
2012,08,17,08,18,22.20
2012,08,17,08,19,22.20
2012,08,17,08,20,22.20
2012,08,17,08,21,22.20
2012,08,17,08,22,22.20
2012,08,17,08,23,22.20
2012,08,17,08,24,22.20
2012,08,17,08,25,22.30
2012,08,17,08,26,22.20
2012,08,17,08,27,22.20
2012,08,17,08,28,22.10
2012,08,17,08,29,22.00
2012,08,17,08,30,22.00
2012,08,17,08,31,22.00
2012,08,17,08,32,22.00
2012,08,17,08,33,22.10
2012,08,17,08,34,22.20
2012,08,17,08,35,22.30
2012,08,17,08,36,22.40
2012,08,17,08,37,22.50
2012,08,17,08,38,22.60
2012,08,17,08,39,22.70
2012,08,17,08,40,22.80
2012,08,17,08,41,22.80
2012,08,17,08,42,22.90
2012,08,17,08,43,22.90
2012,08,17,08,44,22.90
2012,08,17,08,45,23.00
2012,08,17,08,46,23.00
2012,08,17,08,47,23.10
2012,08,17,08,48,23.10
2012,08,17,08,49,23.10
2012,08,17,08,50,23.10
2012,08,17,08,51,23.10
2012,08,17,08,52,23.20
2012,08,17,08,53,23.10
2012,08,17,08,54,23.10
2012,08,17,08,55,23.10
2012,08,17,08,56,23.20
2012,08,17,08,57,23.20
2012,08,17,08,58,23.10
2012,08,17,08,59,23.10
2012,08,17,09,00,23.10
2012,08,17,09,01,23.20
2012,08,17,09,02,23.30
2012,08,17,09,03,23.40
2012,08,17,09,04,23.40
2012,08,17,09,05,23.40
2012,08,17,09,06,23.40
2012,08,17,09,07,23.40
2012,08,17,09,08,23.30
2012,08,17,09,09,23.40
2012,08,17,09,10,23.40
2012,08,17,09,11,23.40
2012,08,17,09,12,23.50
2012,08,17,09,13,23.60
2012,08,17,09,14,23.50
2012,08,17,09,15,23.50
2012,08,17,09,16,23.40
2012,08,17,09,17,23.40
2012,08,17,09,18,23.40
2012,08,17,09,19,23.40
2012,08,17,09,20,23.40
2012,08,17,09,21,23.50
2012,08,17,09,22,23.60
2012,08,17,09,23,23.70
2012,08,17,09,24,23.80
2012,08,17,09,25,23.80
2012,08,17,09,26,23.80
2012,08,17,09,27,23.90
2012,08,17,09,28,23.90
2012,08,17,09,29,23.90
2012,08,17,09,30,23.90
2012,08,17,09,31,23.90
2012,08,17,09,32,24.00
2012,08,17,09,33,24.10
2012,08,17,09,34,24.20
2012,08,17,09,35,24.30
2012,08,17,09,36,24.40
2012,08,17,09,37,24.50
2012,08,17,09,38,24.50
2012,08,17,09,39,24.70
2012,08,17,09,40,24.80
2012,08,17,09,41,24.80
2012,08,17,09,42,24.80
2012,08,17,09,43,24.80
2012,08,17,09,44,24.90
2012,08,17,09,45,25.00
2012,08,17,09,46,25.00
2012,08,17,09,47,25.00
2012,08,17,09,48,25.10
2012,08,17,09,49,25.10
2012,08,17,09,50,25.10
2012,08,17,09,51,25.00
2012,08,17,09,52,25.10
2012,08,17,09,53,25.00
2012,08,17,09,54,25.00
2012,08,17,09,55,25.10
2012,08,17,09,56,25.20
2012,08,17,09,57,25.20
2012,08,17,09,58,25.30
2012,08,17,09,59,25.40
2012,08,17,10,00,25.30
2012,08,17,10,01,25.30
2012,08,17,10,02,25.20
2012,08,17,10,03,25.20
2012,08,17,10,04,25.20
2012,08,17,10,05,25.00
2012,08,17,10,06,24.90
2012,08,17,10,07,24.90
2012,08,17,10,08,24.90
2012,08,17,10,09,24.90
2012,08,17,10,10,24.90
2012,08,17,10,11,24.90
2012,08,17,10,12,24.90
2012,08,17,10,13,25.00
2012,08,17,10,14,25.10
2012,08,17,10,15,25.10
2012,08,17,10,16,25.10
2012,08,17,10,17,25.10
2012,08,17,10,18,25.20
2012,08,17,10,19,25.30
2012,08,17,10,20,25.30
2012,08,17,10,21,25.30
2012,08,17,10,22,25.30
2012,08,17,10,23,25.30
2012,08,17,10,24,25.50
2012,08,17,10,25,25.60
2012,08,17,10,26,25.70
2012,08,17,10,27,25.80
2012,08,17,10,28,25.80
2012,08,17,10,29,25.80
2012,08,17,10,30,25.80
2012,08,17,10,31,25.70
2012,08,17,10,32,25.70
2012,08,17,10,33,25.70
2012,08,17,10,34,25.70
2012,08,17,10,35,25.80
2012,08,17,10,36,25.80
2012,08,17,10,37,25.90
2012,08,17,10,38,25.90
2012,08,17,10,39,26.00
2012,08,17,10,40,26.10
2012,08,17,10,41,26.20
2012,08,17,10,42,26.20
2012,08,17,10,43,26.30
2012,08,17,10,44,26.30
2012,08,17,10,45,26.40
2012,08,17,10,46,26.50
2012,08,17,10,47,26.60
2012,08,17,10,48,26.70
2012,08,17,10,49,26.80
2012,08,17,10,50,26.80
2012,08,17,10,51,26.90
2012,08,17,10,52,26.90
2012,08,17,10,53,26.90
2012,08,17,10,54,26.90
2012,08,17,10,55,26.90
2012,08,17,10,56,26.80
2012,08,17,10,57,26.70
2012,08,17,10,58,26.70
2012,08,17,10,59,26.70
2012,08,17,11,00,26.70
2012,08,17,11,01,26.70
2012,08,17,11,02,26.70
2012,08,17,11,03,26.70
2012,08,17,11,04,26.60
2012,08,17,11,05,26.60
2012,08,17,11,06,26.60
2012,08,17,11,07,26.60
2012,08,17,11,08,26.60
2012,08,17,11,09,26.50
2012,08,17,11,10,26.40
2012,08,17,11,11,26.30
2012,08,17,11,12,26.20
2012,08,17,11,13,26.30
2012,08,17,11,14,26.40
2012,08,17,11,15,26.50
2012,08,17,11,16,26.50
2012,08,17,11,17,26.60
2012,08,17,11,18,26.70
2012,08,17,11,19,26.80
2012,08,17,11,20,26.80
2012,08,17,11,21,26.80
2012,08,17,11,22,26.70
2012,08,17,11,23,26.70
2012,08,17,11,24,26.70
2012,08,17,11,25,26.80
2012,08,17,11,26,26.90
2012,08,17,11,27,27.00
2012,08,17,11,28,27.10
2012,08,17,11,29,27.10
2012,08,17,11,30,27.10
2012,08,17,11,31,27.10
2012,08,17,11,32,27.00
2012,08,17,11,33,27.00
2012,08,17,11,34,27.00
2012,08,17,11,35,27.00
2012,08,17,11,36,27.10
2012,08,17,11,37,27.20
2012,08,17,11,38,27.30
2012,08,17,11,39,27.30
2012,08,17,11,40,27.30
2012,08,17,11,41,27.20
2012,08,17,11,42,27.20
2012,08,17,11,43,27.10
2012,08,17,11,44,27.10
2012,08,17,11,45,27.20
2012,08,17,11,46,27.20
2012,08,17,11,47,27.40
2012,08,17,11,48,27.50
2012,08,17,11,49,27.60
2012,08,17,11,50,27.70
2012,08,17,11,51,27.70
2012,08,17,11,52,27.70
2012,08,17,11,53,27.60
2012,08,17,11,54,27.60
2012,08,17,11,55,27.70
2012,08,17,11,56,27.80
2012,08,17,11,57,27.80
2012,08,17,11,58,27.90
2012,08,17,11,59,27.90
2012,08,17,12,00,27.80
2012,08,17,12,01,27.70
2012,08,17,12,02,27.70
2012,08,17,12,03,27.70
2012,08,17,12,04,27.70
2012,08,17,12,05,27.70
2012,08,17,12,06,27.80
2012,08,17,12,07,27.80
2012,08,17,12,08,27.80
2012,08,17,12,09,27.80
2012,08,17,12,10,27.80
2012,08,17,12,11,27.60
2012,08,17,12,12,27.60
2012,08,17,12,13,27.50
2012,08,17,12,14,27.30
2012,08,17,12,15,27.30
2012,08,17,12,16,27.40
2012,08,17,12,17,27.30
2012,08,17,12,18,27.20
2012,08,17,12,19,27.20
2012,08,17,12,20,27.10
2012,08,17,12,21,27.00
2012,08,17,12,22,26.90
2012,08,17,12,23,26.90
2012,08,17,12,24,27.00
2012,08,17,12,25,27.00
2012,08,17,12,26,27.10
2012,08,17,12,27,27.10
2012,08,17,12,28,27.10
2012,08,17,12,29,27.20
2012,08,17,12,30,27.30
2012,08,17,12,31,27.40
2012,08,17,12,32,27.50
2012,08,17,12,33,27.60
2012,08,17,12,34,27.60
2012,08,17,12,35,27.50
2012,08,17,12,36,27.50
2012,08,17,12,37,27.50
2012,08,17,12,38,27.50
2012,08,17,12,39,27.70
2012,08,17,12,40,27.80
2012,08,17,12,41,27.90
2012,08,17,12,42,28.00
2012,08,17,12,43,28.20
2012,08,17,12,44,28.30
2012,08,17,12,45,28.30
2012,08,17,12,46,28.40
2012,08,17,12,47,28.30
2012,08,17,12,48,28.20
2012,08,17,12,49,28.20
2012,08,17,12,50,28.20
2012,08,17,12,51,28.10
2012,08,17,12,52,28.10
2012,08,17,12,53,28.10
2012,08,17,12,54,28.10
2012,08,17,12,55,28.10
2012,08,17,12,56,28.10
2012,08,17,12,57,28.00
2012,08,17,12,58,28.10
2012,08,17,12,59,28.10
2012,08,17,13,00,28.10
2012,08,17,13,01,28.20
2012,08,17,13,02,28.30
2012,08,17,13,03,28.40
2012,08,17,13,04,28.40
2012,08,17,13,05,28.30
2012,08,17,13,06,28.30
2012,08,17,13,07,28.30
2012,08,17,13,08,28.10
2012,08,17,13,09,28.00
2012,08,17,13,10,28.00
2012,08,17,13,11,28.10
2012,08,17,13,12,28.20
2012,08,17,13,13,28.30
2012,08,17,13,14,28.20
2012,08,17,13,15,28.30
2012,08,17,13,16,28.30
2012,08,17,13,17,28.30
2012,08,17,13,18,28.50
2012,08,17,13,19,28.50
2012,08,17,13,20,28.50
2012,08,17,13,21,28.50
2012,08,17,13,22,28.60
2012,08,17,13,23,28.50
2012,08,17,13,24,28.50
2012,08,17,13,25,28.40
2012,08,17,13,26,28.40
2012,08,17,13,27,28.50
2012,08,17,13,28,28.70
2012,08,17,13,29,28.90
2012,08,17,13,30,28.90
2012,08,17,13,31,28.80
2012,08,17,13,32,28.80
2012,08,17,13,33,28.80
2012,08,17,13,34,28.80
2012,08,17,13,35,28.90
2012,08,17,13,36,28.90
2012,08,17,13,37,29.00
2012,08,17,13,38,29.00
2012,08,17,13,39,29.00
2012,08,17,13,40,28.90
2012,08,17,13,41,28.90
2012,08,17,13,42,28.80
2012,08,17,13,43,28.70
2012,08,17,13,44,28.70
2012,08,17,13,45,28.80
2012,08,17,13,46,28.80
2012,08,17,13,47,28.70
2012,08,17,13,48,28.60
2012,08,17,13,49,28.60
2012,08,17,13,50,28.50
2012,08,17,13,51,28.40
2012,08,17,13,52,28.50
2012,08,17,13,53,28.60
2012,08,17,13,54,28.60
2012,08,17,13,55,28.60
2012,08,17,13,56,28.70
2012,08,17,13,57,28.70
2012,08,17,13,58,28.70
2012,08,17,13,59,28.70
2012,08,17,14,00,28.70
2012,08,17,14,01,28.80
2012,08,17,14,02,28.70
2012,08,17,14,03,28.80
2012,08,17,14,04,28.80
2012,08,17,14,05,28.90
2012,08,17,14,06,28.90
2012,08,17,14,07,28.90
2012,08,17,14,08,28.80
2012,08,17,14,09,28.70
2012,08,17,14,10,28.70
2012,08,17,14,11,28.70
2012,08,17,14,12,28.80
2012,08,17,14,13,28.80
2012,08,17,14,14,28.80
2012,08,17,14,15,28.80
2012,08,17,14,16,28.80
2012,08,17,14,17,28.80
2012,08,17,14,18,28.80
2012,08,17,14,19,28.90
2012,08,17,14,20,28.90
2012,08,17,14,21,28.90
2012,08,17,14,22,28.90
2012,08,17,14,23,28.80
2012,08,17,14,24,28.80
2012,08,17,14,25,28.80
2012,08,17,14,26,28.80
2012,08,17,14,27,28.80
2012,08,17,14,28,28.70
2012,08,17,14,29,28.80
2012,08,17,14,30,28.80
2012,08,17,14,31,28.90
2012,08,17,14,32,28.90
2012,08,17,14,33,29.00
2012,08,17,14,34,29.00
2012,08,17,14,35,29.00
2012,08,17,14,36,29.10
2012,08,17,14,37,29.20
2012,08,17,14,38,29.30
2012,08,17,14,39,29.30
2012,08,17,14,40,29.40
2012,08,17,14,41,29.40
2012,08,17,14,42,29.40
2012,08,17,14,43,29.40
2012,08,17,14,44,29.40
2012,08,17,14,45,29.40
2012,08,17,14,46,29.50
2012,08,17,14,47,29.50
2012,08,17,14,48,29.60
2012,08,17,14,49,29.50
2012,08,17,14,50,29.40
2012,08,17,14,51,29.40
2012,08,17,14,52,29.40
2012,08,17,14,53,29.40
2012,08,17,14,54,29.40
2012,08,17,14,55,29.40
2012,08,17,14,56,29.40
2012,08,17,14,57,29.30
2012,08,17,14,58,29.40
2012,08,17,14,59,29.50
2012,08,17,15,00,29.60
2012,08,17,15,01,29.60
2012,08,17,15,02,29.70
2012,08,17,15,03,29.90
2012,08,17,15,04,30.00
2012,08,17,15,05,30.10
2012,08,17,15,06,30.00
2012,08,17,15,07,30.00
2012,08,17,15,08,29.80
2012,08,17,15,09,29.70
2012,08,17,15,10,29.70
2012,08,17,15,11,29.60
2012,08,17,15,12,29.60
2012,08,17,15,13,29.60
2012,08,17,15,14,29.60
2012,08,17,15,15,29.70
2012,08,17,15,16,29.70
2012,08,17,15,17,29.70
2012,08,17,15,18,29.70
2012,08,17,15,19,29.60
2012,08,17,15,20,29.60
2012,08,17,15,21,29.70
2012,08,17,15,22,29.80
2012,08,17,15,23,29.80
2012,08,17,15,24,29.90
2012,08,17,15,25,29.90
2012,08,17,15,26,29.90
2012,08,17,15,27,29.90
2012,08,17,15,28,30.00
2012,08,17,15,29,30.10
2012,08,17,15,30,30.00
2012,08,17,15,31,29.90
2012,08,17,15,32,29.80
2012,08,17,15,33,29.70
2012,08,17,15,34,29.60
2012,08,17,15,35,29.60
2012,08,17,15,36,29.50
2012,08,17,15,37,29.50
2012,08,17,15,38,29.60
2012,08,17,15,39,29.60
2012,08,17,15,40,29.70
2012,08,17,15,41,29.80
2012,08,17,15,42,29.70
2012,08,17,15,43,29.60
2012,08,17,15,44,29.60
2012,08,17,15,45,29.60
2012,08,17,15,46,29.60
2012,08,17,15,47,29.60
2012,08,17,15,48,29.60
2012,08,17,15,49,29.50
2012,08,17,15,50,29.50
2012,08,17,15,51,29.60
2012,08,17,15,52,29.50
2012,08,17,15,53,29.50
2012,08,17,15,54,29.50
2012,08,17,15,55,29.50
2012,08,17,15,56,29.50
2012,08,17,15,57,29.50
2012,08,17,15,58,29.50
2012,08,17,15,59,29.60
2012,08,17,16,00,29.70
2012,08,17,16,01,29.80
2012,08,17,16,02,29.80
2012,08,17,16,03,29.80
2012,08,17,16,04,29.80
2012,08,17,16,05,29.80
2012,08,17,16,06,29.70
2012,08,17,16,07,29.70
2012,08,17,16,08,29.70
2012,08,17,16,09,29.60
2012,08,17,16,10,29.70
2012,08,17,16,11,29.80
2012,08,17,16,12,29.80
2012,08,17,16,13,29.80
2012,08,17,16,14,29.90
2012,08,17,16,15,30.00
2012,08,17,16,16,30.00
2012,08,17,16,17,29.90
2012,08,17,16,18,29.80
2012,08,17,16,19,29.80
2012,08,17,16,20,29.70
2012,08,17,16,21,29.70
2012,08,17,16,22,29.70
2012,08,17,16,23,29.70
2012,08,17,16,24,29.80
2012,08,17,16,25,29.80
2012,08,17,16,26,29.70
2012,08,17,16,27,29.70
2012,08,17,16,28,29.70
2012,08,17,16,29,29.80
2012,08,17,16,30,29.80
2012,08,17,16,31,29.80
2012,08,17,16,32,29.80
2012,08,17,16,33,29.70
2012,08,17,16,34,29.60
2012,08,17,16,35,29.60
2012,08,17,16,36,29.60
2012,08,17,16,37,29.60
2012,08,17,16,38,29.60
2012,08,17,16,39,29.50
2012,08,17,16,40,29.50
2012,08,17,16,41,29.50
2012,08,17,16,42,29.50
2012,08,17,16,43,29.50
2012,08,17,16,44,29.50
2012,08,17,16,45,29.50
2012,08,17,16,46,29.50
2012,08,17,16,47,29.60
2012,08,17,16,48,29.50
2012,08,17,16,49,29.50
2012,08,17,16,50,29.50
2012,08,17,16,51,29.40
2012,08,17,16,52,29.40
2012,08,17,16,53,29.40
2012,08,17,16,54,29.40
2012,08,17,16,55,29.40
2012,08,17,16,56,29.40
2012,08,17,16,57,29.40
2012,08,17,16,58,29.30
2012,08,17,16,59,29.30
2012,08,17,17,00,29.20
2012,08,17,17,01,29.20
2012,08,17,17,02,29.20
2012,08,17,17,03,29.20
2012,08,17,17,04,29.30
2012,08,17,17,05,29.30
2012,08,17,17,06,29.30
2012,08,17,17,07,29.40
2012,08,17,17,08,29.50
2012,08,17,17,09,29.60
2012,08,17,17,10,29.60
2012,08,17,17,11,29.70
2012,08,17,17,12,29.70
2012,08,17,17,13,29.60
2012,08,17,17,14,29.60
2012,08,17,17,15,29.60
2012,08,17,17,16,29.60
2012,08,17,17,17,29.60
2012,08,17,17,18,29.60
2012,08,17,17,19,29.60